CAPE
0 0 0 0 0 0 0 0 0 0 0 0 0 0 0 0 0 0 0 0 0 0 0 0 0 0 1 332 155 121 580 964 634 976 1073 1031 931 399 813 956 1274 1063 1701 1534
0 0 0 0 0 0 0 0 0 0 0 0 0 0 0 0 0 0 0 0 0 0 0 0 0 0 15 309 125 57 52 428 300 462 553 328 266 294 309 823 990 1265 1556 1543
0 0 0 0 0 0 0 0 0 0 0 0 0 0 0 0 0 0 0 0 0 0 0 0 0 0 0 483 351 278 243 464 246 528 868 676 614 925 1542 1102 1085 1722 1540 1517
0 0 0 0 0 0 0 0 0 0 0 0 0 0 0 0 0 0 0 0 0 0 0 0 0 0 435 351 205 157 258 183 414 310 842 840 664 533 738 1337 1604 1764 1634 1643
0 0 0 0 0 0 0 0 0 0 0 0 0 0 0 0 0 0 0 0 0 0 0 0 0 0 299 177 113 66 196 160 373 895 770 519 607 876 620 1505 1577 1653 1559 1639
0 0 0 13 0 0 0 10 2 0 0 0 0 0 0 0 0 0 0 0 0 0 0 0 0 0 62 143 47 18 21 29 20 251 876 455 342 989 1297 1522 1718 1625 1580 1525
0 0 0 6 0 0 0 0 0 0 0 0 0 20 0 0 0 0 0 0 0 0 0 0 0 0 0 1 0 0 0 8 241 311 733 864 275 561 1187 1594 1875 1720 1462 1241
0 0 0 5 0 0 0 39 7 15 0 0 0 0 0 0 0 0 0 0 0 0 0 0 0 0 0 0 0 0 0 0 161 269 817 823 811 1598 1199 1976 1739 1588 1325 1126
0 0 0 0 0 0 0 12 11 37 0 0 0 0 0 0 3 12 0 0 0 0 1 0 0 0 0 0 0 0 0 51 147 647 519 1595 1089 1948 1853 1853 1634 1299 1075 1182
0 0 0 22 68 40 20 1 0 1 0 13 0 0 0 62 7 0 0 0 0 0 7 43 15 111 242 455 375 342 0 285 301 614 1277 1578 1801 2158 2281 2108 1675 1425 1306 1440
0 0 0 18 46 36 40 27 23 1 0 0 0 0 137 0 0 0 0 0 0 0 23 0 64 713 682 751 568 549 26 187 1129 1879 1871 1878 2038 2532 2156 2108 1788 1634 1684 1579
1 6 0 0 0 22 2 0 15 32 0 1 14 0 2 0 0 0 0 0 0 0 1 307 1396 1207 959 815 709 474 73 1678 2006 1994 2140 2258 2018 1747 1500 1047 831 1042 1165 1077
1 2 0 0 0 43 1 2 0 0 0 2 19 0 0 0 0 0 0 1 0 0 0 0 1219 896 830 774 452 477 1637 2126 2262 2343 2220 1955 1774 1437 977 621 470 462 393 418
38 0 0 1 0 0 0 0 10 0 9 11 26 8 63 0 0 0 3 0 0 0 0 0 117 1024 1018 1313 835 1919 1989 2081 2131 1805 1592 1449 1298 1056 650 490 393 353 257 203
18 3 1 0 2 1 0 0 20 10 18 9 1 13 4 0 0 0 3 1 0 0 0 0 0 1061 1118 1321 1743 1893 1874 1844 1811 1564 1409 1298 1051 737 616 488 413 179 199 171
16 7 8 8 0 0 0 0 1 34 1 2 52 96 21 0 0 0 0 0 0 0 0 0 0 0 1072 975 1133 1519 1460 1530 1445 1292 1256 1157 856 592 411 292 194 201 124 52
6 16 18 0 0 0 0 0 2 28 23 4 20 0 24 6 2 1 0 0 20 144 60 0 0 394 484 946 666 1181 1270 1216 1241 1173 1118 893 514 370 246 334 337 275 148 132
4 0 10 1 0 0 0 0 21 24 17 0 16 1 0 0 1 1 8 19 0 3 6 0 0 45 702 802 502 1106 1146 1064 1143 1015 730 416 424 419 327 270 221 245 17 40
0 4 1 1 2 0 0 0 1 1 0 18 8 1 0 0 0 0 75 1 0 0 0 0 0 41 880 750 494 675 800 876 605 378 253 359 390 354 189 134 160 93 31 15
0 9 4 0 5 0 1 0 0 0 0 1 0 0 0 0 0 0 0 0 0 0 0 0 0 0 715 351 230 388 590 441 257 154 172 412 373 312 130 62 264 69 13 48
10 2 0 0 0 0 3 0 0 0 0 13 1 0 0 1 0 0 0 0 0 0 0 0 0 0 39 292 0 614 402 247 83 91 104 464 440 361 278 341 126 112 128 67
0 7 0 5 14 2 42 0 0 0 0 0 17 0 0 1 4 1 0 0 0 0 0 0 0 0 0 225 534 657 845 79 60 142 504 543 420 482 400 214 110 107 55 33
0 16 24 9 4 27 36 15 0 0 0 0 4 2 0 0 3 4 0 0 0 0 0 0 0 0 0 139 794 946 1068 114 324 363 372 293 270 334 135 111 149 130 66 34
19 17 2 5 9 35 9 1 19 19 33 1 0 0 14 13 1 8 1 0 0 0 0 0 0 0 11 462 994 1267 1166 391 470 305 338 336 287 260 286 196 130 113 56 69
0 0 0 2 3 4 2 21 23 38 5 0 0 0 1 4 3 0 11 0 0 0 0 0 0 0 64 945 1141 1337 1050 536 367 375 401 239 208 121 0 0 0 0 0 7
8 34 34 24 12 3 0 8 37 16 5 0 1 1 2 5 9 5 3 2 0 0 0 0 0 3 240 1042 720 1048 759 544 483 413 329 260 230 0 0 0 0 1 0 2
CIN
0 0 0 0 0 0 0 0 0 0 0 0 0 0 0 0 0 0 0 0 0 0 0 0 0 0 -59 -290 -304 -268 -274 -335 -368 -340 -371 -437 -404 -539 -460 -458 -349 -378 -355 -341
0 0 0 0 0 0 0 0 0 0 0 0 0 0 0 0 0 0 0 0 0 0 0 0 0 0 -260 -279 -327 -331 -312 -407 -415 -486 -409 -448 -496 -501 -446 -431 -396 -347 -346 -351
0 0 0 0 0 0 0 0 0 0 0 0 0 0 0 0 0 0 0 0 0 0 0 0 0 0 0 -335 -374 -348 -373 -360 -419 -462 -431 -443 -466 -393 -303 -406 -400 -339 -347 -328
0 0 0 0 0 0 0 0 0 0 0 0 0 0 0 0 0 0 0 0 0 0 0 0 0 0 -216 -310 -352 -344 -347 -390 -448 -539 -372 -359 -346 -397 -430 -281 -333 -319 -312 -260
0 0 0 0 0 0 0 0 0 0 0 0 0 0 0 0 0 0 0 0 0 0 0 0 0 0 -232 -270 -366 -378 -360 -374 -392 -395 -372 -438 -440 -441 -418 -228 -285 -287 -280 -246
0 0 0 -54 0 0 0 -62 -28 -7 0 0 0 0 0 0 0 0 0 0 0 0 0 0 0 0 -205 -288 -315 -376 -380 -404 -327 -493 -447 -455 -466 -398 -279 -222 -260 -287 -267 -260
0 0 0 -24 0 0 0 0 0 0 0 0 0 -31 0 0 0 0 0 0 0 0 0 0 0 0 0 -51 0 0 0 -82 -417 -454 -403 -435 -513 -397 -255 -181 -196 -242 -263 -295
0 0 0 -3 0 0 0 -9 -31 -4 0 0 0 -1 0 0 0 0 0 0 0 0 0 0 0 0 0 0 0 0 0 0 -413 -396 -357 -387 -418 -233 -208 -142 -190 -222 -260 -292
0 0 0 0 -4 0 0 -11 -42 -34 0 0 0 0 0 -13 -8 -90 0 0 0 0 -14 0 0 0 0 0 0 0 0 -483 -438 -351 -358 -242 -287 -119 -128 -133 -195 -251 -289 -240
0 0 0 -53 -57 -28 -35 -31 -12 -33 0 -6 0 0 0 -114 -63 0 0 0 0 0 -14 -158 -158 -177 -198 -203 -189 -182 0 -397 -372 -292 -235 -176 -132 -81 -77 -89 -163 -199 -213 -182
0 0 0 -38 -53 -12 -98 -71 -46 -8 0 0 0 0 -53 -33 0 0 0 0 0 0 -44 -27 -173 -139 -110 -140 -173 -208 -442 -369 -231 -151 -117 -92 -50 -40 -58 -77 -131 -133 -134 -143
-14 -12 0 -1 -3 -31 -54 0 -27 -25 -1 -1 -9 0 -7 0 0 -17 0 0 0 0 -6 -53 -70 -83 -83 -114 -165 -177 -77 -135 -121 -99 -65 -43 -54 -98 -141 -224 -260 -232 -217 -174
-3 -6 -1 0 0 -68 -8 -98 0 0 0 -15 -3 0 -29 0 0 0 0 0 0 0 0 0 -33 -39 -80 -122 -225 -200 -101 -82 -74 -57 -65 -59 -52 -116 -209 -243 -255 -272 -258 -206
-8 -3 -1 -1 0 0 0 -16 -78 0 -17 -59 -49 -18 -62 0 0 0 -5 0 0 0 0 0 -84 -40 -123 -119 -73 -52 -55 -65 -43 -59 -68 -86 -117 -150 -216 -227 -257 -243 -240 -221
-4 -1 -3 0 -1 -1 0 0 -86 -12 -31 -8 -1 -26 -17 0 0 0 -30 -32 0 0 0 0 0 -32 -58 -98 -59 -33 -63 -36 -48 -57 -61 -90 -117 -155 -192 -214 -216 -263 -215 -203
-4 -1 -1 0 -1 0 0 0 -33 -26 -4 -40 -29 -37 -82 -3 0 -2 0 0 0 0 0 0 0 0 -120 -134 -104 -42 -74 -52 -56 -71 -58 -64 -103 -175 -214 -229 -250 -218 -223 -214
-3 -2 -1 -1 0 -2 0 0 -22 -22 -34 -36 -23 -19 -39 -58 -11 -155 0 0 -13 -48 -85 0 0 -39 -64 -99 -165 -63 -57 -48 -68 -59 -65 -96 -157 -182 -210 -191 -173 -162 -179 -151
-1 0 0 0 0 -1 0 0 -23 -21 -30 0 -45 -42 0 -38 -232 -97 -62 -91 0 -57 -207 0 0 -56 -57 -41 -132 -54 -66 -53 -65 -63 -93 -131 -136 -144 -166 -176 -150 -161 -239 -162
-1 -7 0 0 -1 0 0 0 -10 0 0 -28 -80 -17 0 0 0 0 -58 -40 0 0 0 0 0 -97 -21 -47 -78 -80 -58 -49 -94 -130 -135 -140 -133 -145 -177 -158 -150 -182 -198 -225
-3 -18 -1 -1 0 0 -3 0 0 0 0 -23 0 0 0 0 0 0 0 0 0 0 0 0 0 0 -19 -71 -52 -72 -66 -87 -123 -161 -167 -129 -129 -147 -177 -195 -107 -140 -182 -103
-4 -16 0 0 0 0 -11 0 0 0 0 -37 -7 0 0 -1 -1 0 0 0 0 0 0 0 0 0 -15 -20 -109 -86 -71 -102 -156 -156 -192 -111 -126 -155 -150 -107 -115 -83 -61 -66
-1 -6 0 -1 -1 -1 -19 0 0 0 0 0 -7 0 0 -1 0 -3 0 0 0 0 0 0 0 0 0 -73 -17 -65 -40 -150 -161 -152 -86 -123 -140 -93 -102 -110 -90 -60 -64 -98
0 -36 -8 -9 -19 -20 -25 -6 0 0 0 0 -12 -9 0 -1 -3 -1 0 0 0 0 0 0 0 0 0 -70 -44 -48 -46 -91 -90 -143 -173 -183 -156 -126 -133 -105 -64 -55 -74 -98
-36 -40 -15 -8 -10 -26 -16 -29 -14 -32 -58 -39 0 0 -1 0 -1 0 0 0 0 0 0 0 0 0 -31 -31 -25 -41 -57 -79 -124 -185 -184 -168 -162 -126 -76 -81 -63 -49 -64 -68
0 0 0 -2 -34 -17 -15 -15 -10 -27 -56 0 0 -6 -2 0 0 -7 0 0 0 0 0 0 0 0 -37 -34 -51 -52 -68 -110 -176 -180 -154 -166 -152 -65 0 0 0 0 0 -37
-55 -9 -2 -1 -8 -2 0 -23 -16 -32 -29 -9 0 0 -1 -2 0 0 -6 -11 0 0 0 0 0 -130 -117 -39 -92 -66 -82 -118 -161 -160 -146 -141 -119 0 0 0 0 0 0 0
Wind_Speed
7 5 6 11 10 12 13 17 17 20 12 13 13 18 22 14 16 19 20 12 19 20 24 19 14 10 8 9 12 12 11 10 8 4 4 3 5 3 3 5 8 8 10 13
6 6 8 14 14 14 14 15 18 17 13 14 16 22 23 16 16 18 18 21 19 21 19 20 20 17 10 13 15 12 13 10 7 5 3 4 3 4 4 5 7 7 9 11
6 9 14 15 13 16 14 14 16 20 14 12 15 20 22 26 17 18 21 19 20 22 22 19 14 17 17 12 12 11 11 11 8 8 3 2 1 2 2 3 4 5 9 11
9 11 13 12 16 15 17 15 20 19 10 10 6 19 17 20 23 19 18 18 19 18 21 19 17 12 9 13 15 14 11 11 9 9 6 8 7 6 4 4 4 6 8 8
13 12 4 11 9 11 16 14 21 24 10 9 10 11 14 10 16 21 17 22 19 18 21 23 21 12 11 14 14 14 13 12 11 11 13 10 7 5 3 2 8 6 6 8
8 6 4 3 10 10 16 9 15 16 3 12 15 13 20 16 22 26 20 22 25 19 15 22 19 12 9 10 13 12 13 13 14 13 12 11 11 7 5 4 7 6 4 5
7 5 3 3 6 16 12 4 5 5 4 12 12 5 9 19 22 26 24 23 25 29 23 19 15 11 9 12 11 13 15 15 14 13 13 13 12 9 9 7 7 9 5 3
4 6 8 4 10 15 10 5 5 6 9 14 12 11 15 19 19 22 21 26 26 26 31 20 21 14 10 12 11 12 13 11 10 12 13 12 9 6 6 7 8 8 7 6
5 5 16 16 12 10 14 6 6 3 3 2 7 19 19 20 18 18 27 21 21 22 20 20 12 10 9 10 11 11 11 10 12 12 11 10 9 8 8 9 9 9 7 6
4 9 7 15 14 9 9 8 8 3 5 6 9 11 9 14 19 27 32 28 25 10 13 3 9 8 6 7 5 4 8 12 13 11 9 9 8 7 10 11 11 10 8 8
9 4 8 9 5 6 9 5 4 3 5 4 5 4 8 12 16 24 31 31 25 31 7 6 2 7 6 4 3 4 8 9 9 9 8 8 7 7 10 8 9 10 10 11
5 5 5 15 17 7 6 6 5 3 5 4 8 10 10 8 14 17 25 23 25 24 3 5 5 4 0 3 4 4 7 10 11 10 8 8 8 10 10 10 9 10 12 11
1 4 5 7 3 1 1 9 5 4 1 7 7 7 6 8 14 15 18 19 21 25 17 6 1 1 7 7 6 7 11 12 11 10 9 9 11 11 12 10 9 11 9 8
4 5 7 9 13 12 17 19 16 9 3 12 12 20 4 10 9 14 19 20 22 19 25 8 4 3 3 7 9 11 12 12 11 9 10 12 11 11 11 8 7 8 8 8
2 5 9 14 18 18 19 21 17 14 13 15 16 5 7 6 7 5 11 17 21 23 26 13 7 6 1 6 4 11 12 11 12 14 12 12 10 9 10 8 7 8 7 7
3 7 9 18 18 18 21 16 18 12 9 11 10 4 6 11 7 11 11 13 18 17 28 8 7 6 4 3 4 8 13 12 15 15 14 12 11 10 8 7 7 7 7 7
3 4 5 10 11 14 13 6 2 1 4 11 6 6 7 6 10 9 7 16 15 19 18 17 6 6 4 1 3 9 15 16 16 15 14 12 11 10 8 7 7 7 7 6
6 2 3 6 8 4 5 3 7 4 3 11 11 13 11 11 13 11 7 9 17 18 20 19 10 8 4 5 4 5 13 16 18 16 15 13 11 9 7 8 7 7 6 7
7 4 3 3 4 14 12 6 5 5 3 5 6 9 12 15 13 11 4 15 15 15 18 17 16 8 2 7 7 11 15 16 17 16 14 12 13 10 8 7 7 6 7 5
7 3 2 3 3 5 4 4 6 2 2 7 5 6 10 14 10 11 14 20 20 19 17 18 17 16 8 10 3 11 13 16 14 13 13 15 14 12 8 8 8 4 6 5
3 2 7 7 6 8 1 7 7 4 7 8 3 4 5 7 12 16 18 21 16 15 19 20 16 11 9 12 16 13 10 14 13 12 11 15 13 12 9 8 7 6 6 6
6 3 4 4 4 7 4 4 3 8 13 11 4 6 9 11 17 14 15 16 15 15 19 20 15 11 8 5 14 6 4 8 13 10 15 15 14 10 8 11 5 7 7 7
4 6 3 6 6 5 5 9 11 10 14 15 8 6 10 15 15 14 14 15 14 15 17 19 15 12 13 7 7 4 1 7 14 16 16 13 12 13 11 9 7 6 6 6
5 6 6 8 4 7 15 15 14 7 9 9 11 12 5 11 13 16 16 14 15 13 16 18 15 11 9 11 20 7 2 12 18 16 14 12 13 10 9 6 5 6 5 6
12 9 9 12 8 7 14 9 6 6 6 12 11 11 13 12 17 17 12 16 15 14 15 16 16 10 13 8 6 5 1 17 17 15 12 11 10 10 8 7 4 4 3 2
4 8 3 5 7 10 12 9 7 6 12 11 12 18 16 18 17 16 14 14 13 13 13 12 14 12 13 2 8 6 5 17 16 14 10 9 9 8 8 8 7 13 9 5
Wind_Direction
312 352 282 270 268 274 287 291 292 296 320 327 301 290 288 296 301 288 245 243 238 242 253 264 270 250 220 185 164 162 148 159 142 142 153 195 220 218 223 210 206 194 180 186
331 286 288 314 313 311 302 290 277 281 290 293 298 289 290 294 290 285 282 266 231 229 240 254 259 264 225 187 181 174 171 163 160 148 171 162 182 222 205 202 203 191 165 165
298 290 302 301 304 292 289 282 282 283 292 276 271 277 287 291 284 278 279 267 259 219 221 233 242 244 244 182 176 169 171 171 169 175 135 183 236 276 214 222 191 178 158 154
273 279 292 338 319 320 298 294 302 303 304 276 253 275 265 282 288 288 288 274 268 257 227 226 234 232 220 184 170 170 175 174 186 174 174 186 207 214 214 195 162 151 154 152
262 283 9 286 316 348 301 307 295 295 287 311 285 282 287 273 270 279 282 283 273 271 232 218 230 220 201 184 177 177 178 184 184 186 195 192 197 209 194 180 154 151 158 157
290 342 312 84 332 304 284 280 301 278 254 267 270 261 273 268 275 286 276 280 281 277 239 223 216 208 177 203 177 178 183 196 197 190 188 185 194 193 186 189 162 166 154 152
315 301 336 119 313 316 319 61 343 327 316 270 273 295 264 300 282 260 270 276 271 279 280 219 212 206 189 184 189 190 189 198 200 190 191 188 194 187 186 182 165 156 152 148
277 309 292 262 303 294 296 228 183 265 272 283 299 267 271 259 272 277 274 280 271 286 290 212 208 212 191 199 198 185 187 198 194 192 196 188 174 170 188 171 162 159 167 157
357 302 328 319 318 315 295 273 256 322 345 310 249 268 268 269 272 331 331 274 268 269 283 209 192 174 177 180 189 188 183 187 186 189 179 167 173 171 178 163 161 159 156 162
350 312 316 301 321 299 343 308 295 68 261 241 241 287 271 14 3 347 343 331 325 270 270 22 126 134 133 130 123 145 171 169 171 163 158 160 167 172 166 154 161 162 155 148
331 215 296 306 279 322 341 9 22 177 220 278 310 271 50 21 4 348 329 325 325 304 310 291 125 129 134 127 117 130 160 147 146 142 144 148 172 165 160 138 145 152 150 140
56 272 276 292 290 146 206 222 177 153 285 294 284 272 65 27 29 332 328 317 325 293 330 352 76 95 229 216 213 177 170 144 146 145 148 157 139 135 121 113 124 129 133 139
337 308 318 302 299 92 28 293 251 206 151 250 270 277 104 47 13 348 309 321 329 294 331 13 228 240 225 222 200 192 155 145 144 144 135 126 134 122 112 117 124 127 128 136
289 213 229 263 268 275 285 282 282 236 237 270 269 299 17 64 22 344 320 313 296 304 323 319 5 342 16 285 183 149 141 142 143 124 131 125 129 115 120 132 122 123 126 130
215 251 257 265 282 285 285 289 309 292 266 287 314 26 80 124 59 330 282 287 307 314 310 310 4 12 150 293 146 144 140 139 125 129 132 125 119 122 126 125 128 123 124 129
253 267 292 282 279 277 281 280 280 290 353 302 314 70 197 164 173 238 274 286 288 278 282 319 355 12 0 332 194 163 132 136 131 133 125 129 127 118 120 121 125 126 135 131
310 278 299 273 279 315 293 245 62 316 317 285 0 279 327 152 227 264 298 315 338 351 341 329 341 327 270 274 291 171 142 141 135 133 129 129 124 128 134 131 127 132 129 127
199 290 271 290 313 246 248 264 295 336 359 326 328 22 14 3 342 315 303 14 346 341 341 334 319 320 43 137 265 97 144 145 130 130 132 138 132 129 124 130 139 115 121 119
160 155 277 273 293 275 287 360 34 59 309 82 79 11 345 351 343 324 15 359 330 325 325 319 328 325 3 138 245 154 138 133 131 135 146 137 134 134 133 135 121 120 111 110
142 188 198 323 274 270 272 316 8 348 290 81 29 11 341 332 319 295 325 328 323 317 312 313 323 339 325 81 15 276 133 131 142 143 147 145 144 142 143 134 121 118 124 130
205 214 226 236 237 276 29 51 8 8 211 105 21 332 319 296 280 297 301 297 298 298 302 308 317 331 328 123 207 262 124 145 151 148 146 147 144 144 140 121 125 125 130 121
187 231 206 215 244 270 135 85 167 248 291 283 255 253 270 272 275 271 281 287 292 304 304 302 308 316 318 261 219 194 94 157 145 123 125 135 135 132 118 125 120 124 125 120
288 182 209 210 228 284 302 261 251 254 269 288 271 239 273 284 274 279 281 286 280 284 290 291 293 315 322 266 279 179 220 155 119 118 123 122 128 123 126 126 124 122 122 129
275 298 270 301 258 317 314 280 268 236 241 284 286 289 242 271 277 276 268 268 273 276 284 283 296 296 279 192 200 191 211 123 122 118 119 121 119 117 125 117 121 139 144 149
266 302 277 276 296 278 264 281 305 280 290 289 282 286 288 273 276 276 261 259 263 266 273 286 288 283 280 184 166 176 166 131 122 120 124 122 118 110 94 71 38 98 75 186
238 304 262 281 273 278 277 310 267 263 287 284 282 289 277 269 255 259 263 260 250 260 273 284 289 302 319 158 169 212 103 134 130 128 129 131 123 123 116 115 97 50 43 15